www.pogodaiklimat.ru

Погода и климат >> Архив погоды >> Россия >> Якутия >> Усть-Миль


ПОГОДА в Усть-Миле

  • Прогноз погоды в Усть-Миле
  • Монитор погоды в Усть-Миле
  • Климат города

АРХИВ ПОГОДЫ в Усть-Миле

Время (UTC), дата Ветер
(напр.,м/с)
 
Видим.   Явления Облачность Т
(С)
Тd
(С)
f
(%)
Тe
(С)
Тes
(С)
Комфортность P
(гПа)
Po
(гПа)
Тmin
(С)
Tmax
(С)
R
(мм)
R24
(мм)
S
(см)
09 19.06 штиль 0 50 км 3/3 600 м
[Cu hum]
+27.4 +8.0 29 +27 +30 жарко 1006.5 986.3 +28.7
12 19.06 штиль 0 50 км ясно +17.2 +12.3 73 +17 +17 1007.9 987.0
15 19.06 штиль 0 50 км ясно +9.1 +7.4 89 +8 +8 1008.4 986.9
18 19.06 штиль 0 50 км 4/0
[Ac trans]
+6.6 +5.9 95 +6 +6 1008.7 986.9
21 19.06 З 1 50 км 10/0
[Ac trans Ci fib]
+10.1 +7.6 84 +10 +11 1009.5 987.9 +6.5
00 20.06 З 1 50 км 4/3
[Cb cap Ac trans]
+17.8 +9.4 58 +19 +26 1008.9 987.9
03 20.06 З 1 50 км 10/1 600 м
[Cb cap Cs]
+24.5 +11.0 43 +26 +38 жарко 1007.6 987.1
06 20.06 В 1 50 км {гроза} 10/6 600 м
[Cb cap Cs]
+25.6 +10.7 39 +27 +30 жарко 1005.3 985.0
09 20.06 штиль 0 50 км в посл. час ливневой дождь 10/8 600 м
[Cb cap Cs]
+18.7 +15.8 83 +20 +20 1005.5 984.8 +25.9 1
12 20.06 В 1 50 км {ливн. осадки} 10/4 600 м
[Cb cap Ac trans Cs]
+18.5 +15.8 84 +20 +20 1005.1 984.4
15 20.06 З 1 50 км 10/6 600 м
[Cb cap Ac trans Cs]
+16.8 +12.5 76 +18 +18 1004.2 983.3
18 20.06 З 1 50 км 10/8 600 м
[Cb cap As op]
+15.4 +13.3 87 +16 +16 1003.1 982.2
21 20.06 штиль 0 50 км 8/8 600 м
[Cb cap]
+16.6 +16.3 98 +16 +17 1001.7 980.9 +15.2
00 21.06 СЗ 4 50 км 8/8 600 м
[Cb cap]
+21.6 +12.5 56 +24 +25 комфорт 1000.9 980.4
03 21.06 С 5 50 км 3/3 600 м
[Cu hum]
+24.5 +10.3 41 +26 +31 жарко 1000.5 980.2
06 21.06 СЗ 4 50 км 3/3 600 м
[Cu med, cong]
+24.2 +7.5 34 +24 +29 комфорт 1001.4 988.1
09 21.06 СВ 3 50 км 1/1 600 м
[Cu hum]
+24.6 +8.2 35 +25 +27 комфорт 1002.6 982.3 +25.5
12 21.06 СВ 1 50 км 3/0
[Ci fib]
+18.0 +11.4 65 +19 +19 1004.3 983.4
15 21.06 штиль 0 <100 м 3/0
[Ac trans]
+8.2 +6.0 86 +7 +7 1006.1 984.5
18 21.06 штиль 0 50 км 4/0
[Ci fib]
+5.8 +4.4 91 +5 +5 1006.5 984.7
21 21.06 штиль 0 50 км 8/0
[Ci fib]
+11.5 +10.3 92 +11 +14 1006.0 984.7 +5.2
00 22.06 н/о +18.9 +13.4 70 +18 +19 1005.5 984.8
03 22.06 ЮЗ 1 50 км 10/0
[Ci fib]
+25.5 +9.5 36 +26 +40 жарко 1003.6 983.3
06 22.06 З 1 50 км 10/1 600 м
[Cb cap Ci fib]
+29.1 +13.8 39 +31 +40 жарко 1002.0 982.1
09 22.06 СЗ 1 50 км 10/0
[Ci fib]
+27.8 +14.4 44 +30 +33 жарко 1000.5 980.4 +29.5
12 22.06 СЗ 1 50 км 10/3 600 м
[Cb cap Ac trans Ci fib]
+23.2 +17.2 69 +28 +28 душно 1001.4 981.1
15 22.06 штиль 0 50 км 10/3 600 м
[Cb cap Ac trans Cs]
+18.4 +15.5 83 +19 +19 1001.9 981.3
18 22.06 штиль 0 50 км 10/4 600 м
[Cb cap Ci fib]
+15.1 +14.0 93 +15 +15 1003.2 982.3
21 22.06 В 1 50 км 8/3 600 м
[Cb cap Ci fib]
+16.6 +14.5 87 +17 +19 1003.8 982.9 +15.0
00 23.06 штиль 0 50 км 10/0
[Cs]
+24.0 +18.0 69 +28 +39 душно 1003.0 982.7
03 23.06 ЮВ 1 50 км 10/1 600 м
[Cu hum Cs]
+27.0 +15.6 50 +30 +42 душно 1002.7 982.5
06 23.06 В 1 50 км 10/0
[Cs]
+27.9 +15.5 47 +31 +41 душно 1002.7 982.5
09 23.06 В 2 50 км 10/0
[Cs]
+26.8 +15.5 50 +30 +32 душно 1002.7 982.5 +28.3
12 23.06 ЮВ 2 50 км 10/0
[Ac trans Cs]
+22.6 +12.9 54 +25 +25 комфорт 1003.4 982.9
15 23.06 ЮВ 1 50 км 4/0
[Ci fib]
+19.2 +9.4 53 +21 +21 комфорт 1005.1 984.4
18 23.06 Ю 1 50 км 3/0
[Ci fib]
+15.5 +6.5 55 +16 +16 1005.8 984.8
21 23.06 ЮВ 1 50 км 10/0
[Cs]
+15.8 +8.3 61 +17 +19 1005.9 984.9 +15.3
00 24.06 ЮВ 1 50 км 10/0 <50 м
[Cs]
+19.8 +9.0 50 +22 +31 комфорт 1005.6 984.9
03 24.06 Ю 2 50 км 10/0
[Cs]
+23.8 +14.0 54 +26 +38 жарко 1009.7 984.1
06 24.06 ЮВ 1 50 км 10/0
[As op]
+23.6 +18.0 71 +28 +30 душно 1003.7 983.2
09 24.06 штиль 0 50 км 10/3 600 м
[Cb cap As op]
+24.2 +15.6 59 +27 +28 жарко 1002.9 982.6 +24.6
12 24.06 штиль 0 50 км 10/0
[As op]
+17.8 +12.2 70 +18 +18 1003.4 982.5
15 24.06 штиль 0 50 км 10/0
[Cs]
+11.7 +10.3 91 +11 +11 1004.1 982.8
18 24.06 штиль 0 50 км 10/0
[Ac trans Ci fib]
+9.7 +8.3 91 +9 +9 1004.4 982.7
21 24.06 штиль 0 50 км 10/0
[Ci fib]
+13.4 +11.7 89 +13 +16 1004.2 983.0 +9.6
00 25.06 ЮЗ 1 50 км 10/3 600 м
[Cb cap Ci fib]
+19.6 +15.1 75 +21 +27 комфорт 1004.9 984.2
03 25.06 СЗ 2 50 км 10/4 600 м
[Cb cap Ci fib]
+24.3 +16.7 63 +28 +35 душно 1003.7 983.4
06 25.06 СВ 2 50 км гроза без осадков 10/6 600 м
[Cb cap Ci fib]
+25.0 +14.9 53 +28 +31 жарко 1003.1 982.8
09 25.06 СВ 2 50 км гроза без осадков {ливн. осадки} 10/4 600 м
[Cb cap Ci fib]
+25.0 +16.4 59 +28 +30 жарко 1003.7 983.4 +27.0
12 25.06 С 2 50 км {гроза, ливн. осадки} 6/3 600 м
[Cb cap Ac trans Ci fib]
+21.8 +12.5 55 +24 +24 комфорт 1004.4 983.8
15 25.06 СВ 1 50 км 4/0
[Ci fib]
+14.6 +8.7 68 +15 +15 1006.3 985.1
18 25.06 штиль 0 50 км ясно +6.3 +3.3 81 +5 +5 1007.3 985.5
21 25.06 З 1 50 км ясно +10.1 +8.3 89 +10 +12 1008.3 986.8 +6.2
00 26.06 Ю 1 50 км ясно +19.0 +9.1 53 +21 +32 комфорт 1007.0 986.3
03 26.06 ЮВ 1 50 км 4/4 600 м
[Cu med, cong]
+24.5 +13.6 51 +27 +37 жарко 1006.1 985.8
06 26.06 ЮВ 2 50 км 4/4 600 м
[Cb cap]
+25.4 +10.1 38 +26 +32 жарко 1005.8 985.5

 

Местоположение метеостанции Усть-Миль (Якутия, Россия): широта 59.63 долгота 133.00 высота над уровнем моря 179 м.

В архиве по умолчанию представлена погода в Усть-Миле за последнюю неделю. Архивные данные за месяц целиком и за предыдущие месяцы, начиная с января 2011 года, Вы можете получить, выбрав интересующий диапазон дат из раскрывающегося списка и нажав кнопку "Ввод!".

Внимание! Время в таблицах - всемирное. Для получения местного времени необходимо прибавить поправку, которая в Усть-Миле равна 9 ч.

Смотрите также архив погоды в соседних городах и на ближайших метеорологических станциях:

Погода в Усть-Мае (Якутия, Россия) (112 км)
Погода в Усть-Юдоме (Якутия, Россия) (129 км)
Погода в Амге (Якутия, Россия) (154 км)
Погода в Учуре (Якутия, Россия) (169 км)
Погода в Тегюльте (Якутия, Россия) (191 км)
Погода в Чюльбю (Якутия, Россия) (240 км)
Погода в Югоренке (Якутия, Россия) (259 км)
Погода в Чурапче (Якутия, Россия) (268 км)
Погода в Угино (Якутия, Россия) (280 км)
Погода в Охотском Перевозе (Якутия, Россия) (284 км)

Пояснения к столбцам:

Ветер - указаны скорость ветра в м/с - средняя за 10 мин, порывы в срок и между сроками (в фигурных скобках) и направление, откуда дует ветер: С - северный, СВ - северо-восточный, В - восточный, ЮВ - юго-восточный, Ю - южный, ЮЗ - юго-западный, З - западный, СЗ - северо-западный.
Видимость - горизонтальная дальность видимости в метрах или километрах. При видимости от 1 до 10 км при отсутствии осадков обычно наблюдается дымка, при ухудшении видимости до 1 км и менее - туман. В сухую погоду видимость может ухудшаться дымом, пылью или мглою.
Явления - указаны атмосферные явления, наблюдавшиеся в срок или в последний час перед сроком; фигурными скобками обозначены явления, наблюдавшиеся между сроками (за 1-3 часа до срока); квадратными скобками обозначены град или гололедные отложения с указанием их диаметра в мм.
Облачность - указаны через наклонную черту общая и нижняя облачность в баллах и высота нижней границы облаков в метрах; квадратными скобками обозначены формы облаков: Ci - перистые, Cs - перисто-слоистые, Cc - перисто-кучевые, Ac - высококучевые, As - высокослоистые, Sc - слоисто-кучевые, Ns - слоисто-дождевые, Cu - кучевые, Cb - кучево-дождевые. Подробнее классификацию облаков см. в Атласе облаков (PDF).
T - Температура воздуха - температура, измеренная на высоте 2 м над землей.
Td - Температура точки росы - температура, при понижении до которой содержащийся в воздухе водяной пар достигнет насыщения.
f - Относительная влажность воздуха - влажноcть воздуха, измеренная на высоте 2 м над землей.
Te - Эффективная температура - температура, которую ощущает одетый по сезону человек в тени. Характеристика душности погоды. При расчете учитывается влияние влажности воздуха и скорости ветра на теплоощущения человека.
Tes - Эффективная температура на солнце - температура, которую ощущает человек, с поправкой на солнечный нагрев. Характеристика знойности погоды. Зависит от высоты солнца над горизонтом, облачности и скорости ветра. Ночью, в пасмурную погоду, а также при ветре 12 м/с и более поправка равна нулю.
P - Атмосферное давление - приведенное к уровню моря атмосферное давление.
Po - Атмосферное давление - измеренное на уровне метеостанции атмосферное давление.
Tmin - Минимальная температура - минимум температуры воздуха на высоте 2 м над землей.
Tmax - Максимальная температура - максимум температуры воздуха на высоте 2 м над землей.
R - Количество осадков - Количество выпавших осадков за период времени, мм. При наведении курсора мыши на число - период времени, за который выпало указанное количество осадков.
R24 - Количество осадков - Количество выпавших осадков за 24 часа, мм.
S - Снежный покров - Высота снежного покрова, см. При наведении курсора мыши на число - состояние снежного покрова и степень покрытия местности в баллах.